SCP
0 0 0 0 0 0 0 0 0 0 0 0 0 0 0 0 0 0 0 0 0 0 0 0 0 0 0 0 0 0 0 0
0 0 0 0 0 0 0 0 0 0 0 0 0 0 0 0 0 0 0 0 0 0 0 0 0 0 0 0 0 0 0 0
0 0 0 0 0 0 0 0 0 0 0 0 0 0 0 0 0 0 0 0 0 0 0 0 0 0 0 0 0 0 0 0
0 0 0 0 0 0 0 0 0 0 0 0 0 0 0 0 0 0 0 0 0 0 0 0 0 0 0 0 0 0 0 0
0 0 0 0 0 0 0 0 0 0 0 0 0 0 0 0 0 0 0 0 0 0 0 0 0 0 0 0 0 0 0 0
0 0 0 0 0 0 0 0 0 0 0 0 0 0 0 0 0 0 0 0 0 0 0 0 0 0 0 0 0 0 0 0
0 0 0 0 0 0 0 0 0 0 0 0 0 0 0 0 0 0 0 0 0 0 0 0 0 0 0 0 0 0 0 0
0 0 0 0 0 0 0 0 0 0 0 0 0 0 0 0 0 0 0 0 0 0 0 0 0 -0 -0 -0 0 0 0 0
0 0 0 -0 0 0 0 0 0 0 0 0 0 0 0 0 0 0 0 0 0 -0 -0 0 0 -0 0 0 0 0 0 0
0 0 0 0 -0 0 0 0 0 0 0 0 0 0 0 0 0 0 0 0 -0 -0 0 0 0 0 0 0 0 0 0 0
0 0 0 0 -0 -0 0 0 0 0 0 0 0 0 0 0 0 0 0 0 -0 -0 0 0 0 -0 -0 0 0 0 0 0
0 0 0 0 -0 0 0 0 0 0 0 0 0 0 0 0 0 0 0 0 0 0 -0 -0 0 -0 -0 -0 0 0 0 0
0 0 0 0 -0 0 0 0 0 0 0 0 0 0 0 0 0 0 0 0 0 0 -0 -0 0 -0 -0 0 0 0 0 0
0 0 0 0 -0 0 0 0 0 0 0 0 0 0 0 0 0 0 0 0 0 0 -0 -0 -0 -0 -0 0 0 0 0 0
0 0 -0 0 -0 -0 0 0 0 0 0 0 0 0 0 0 0 0 0 0 0 0 -0 -0 -0 -0 -0 -0 0 0 0 0
0 0 0 0 -0 -0 -0 0 0 0 0 0 0 0 0 0 0 0 0 0 0 0 0 0 0 -0 0 -0 -0 -0 0 0
0 0 0 -0 -0 -0 -0 0 0 0 0 0 0 0 0 0 0 0 0 0 0 0 0 0 -0 -0 -0 0 -0 0 0 0
0 0 0 -0 -0 0 -0 0 0 0 0 0 0 0 0 0 0 0 0 0 0 0 0 -0 0 -0 -0 -0 -0 -0 0 0
0 0 0 0 0 0 0 0 0 0 0 0 0 0 0 0 0 0 0 0 0 0 0 0 0 0 -0 -0 0 -0 -0 0
0 0 0 0 0 0 0 0 0 0 0 0 0 0 0 0 0 0 0 0 0 0 0 0 0 0 0 0 0 0 0 -0
Wind_Speed_500mb
38 42 45 46 43 44 46 47 41 40 38 37 39 40 40 39 37 38 41 46 48 47 44 40 39 38 36 39 42 43 46 48
51 53 55 53 49 44 41 42 39 38 39 40 41 41 39 37 35 36 39 43 44 45 41 40 38 38 39 42 43 45 48 51
69 64 68 74 63 47 39 40 36 36 42 44 43 41 38 37 36 35 38 40 42 40 38 36 36 37 39 40 38 40 43 43
79 72 69 73 85 84 62 42 41 42 47 48 46 42 39 38 37 35 37 38 38 33 33 33 35 36 34 35 34 34 41 43
82 79 70 65 70 76 90 96 87 67 58 56 50 43 40 39 37 34 36 36 36 31 29 31 34 33 31 27 32 41 42 46
79 81 80 76 69 66 69 76 81 82 70 68 53 46 42 40 36 34 34 33 32 28 25 28 31 29 32 26 35 37 36 34
77 83 90 90 78 69 64 64 73 88 88 69 56 49 42 38 36 35 33 31 29 26 25 25 28 27 29 29 36 33 36 42
96 94 100 104 94 76 66 58 60 61 66 64 55 48 42 37 37 35 33 30 27 21 20 19 24 29 32 34 39 40 41 45
95 95 101 106 99 79 59 57 55 48 54 56 54 48 42 38 36 34 31 28 23 16 13 19 32 35 34 37 39 36 37 41
89 90 89 97 99 75 64 58 58 59 56 54 53 48 43 38 34 30 28 25 19 16 17 23 31 31 33 36 35 33 34 36
91 88 86 87 93 67 47 50 55 52 48 50 51 48 44 37 33 29 28 25 20 20 20 25 25 26 29 31 33 33 32 30
84 94 91 81 73 63 45 46 44 41 43 46 49 48 44 37 35 32 30 29 23 21 21 24 20 19 25 29 32 33 34 36
91 102 95 79 55 59 57 44 41 40 41 43 48 48 46 41 37 35 33 30 28 22 18 18 13 16 23 25 27 31 32 35
90 98 89 88 65 81 66 44 42 42 40 38 45 45 46 44 39 40 34 32 29 24 18 16 12 12 19 23 23 24 27 31
85 84 91 91 78 76 66 52 48 44 41 38 43 42 46 45 41 40 36 33 29 25 19 17 14 7 14 19 19 22 22 27
84 88 91 80 86 75 63 59 50 42 43 43 41 40 42 44 41 37 30 32 32 27 24 20 16 8 6 13 14 16 20 25
87 87 88 82 88 72 64 53 42 40 46 49 45 42 39 42 41 40 35 38 33 29 24 23 19 13 3 7 10 10 10 17
89 85 84 84 74 76 62 47 37 41 51 52 49 48 42 41 43 43 39 38 37 32 28 26 24 20 11 6 7 5 4 13
75 80 79 77 74 68 61 51 45 45 50 54 54 50 46 43 41 41 42 42 38 36 33 31 30 25 17 11 8 7 1 9
64 70 69 69 67 53 57 56 53 58 51 54 54 55 51 46 44 43 44 45 40 39 36 36 34 30 26 20 12 9 5 7
Wind_Direction_500mb
259 252 244 250 265 273 279 279 268 266 269 270 273 275 279 284 292 301 308 313 316 315 309 304 299 298 295 292 290 287 286 285
300 275 259 259 266 274 281 277 265 260 267 271 272 273 278 286 291 297 307 314 317 316 317 314 310 306 298 295 294 293 290 285
315 306 286 266 259 268 280 275 269 259 263 269 269 272 280 284 287 294 309 315 317 318 318 317 318 314 309 306 303 301 303 303
324 316 302 286 277 264 268 279 277 265 263 264 267 271 278 280 284 293 308 313 318 318 321 323 322 319 313 309 312 310 307 306
330 326 317 306 292 282 273 267 274 275 264 261 264 267 272 275 277 286 302 310 318 316 320 323 325 322 323 325 321 316 309 300
338 338 332 321 305 290 283 276 272 264 259 262 255 259 266 271 273 280 295 306 314 310 315 324 326 329 331 327 322 317 318 324
340 341 338 335 321 308 286 280 270 262 255 246 245 254 262 269 271 275 288 295 304 306 314 322 325 332 333 331 325 325 327 325
329 330 332 332 327 307 290 281 279 256 234 232 240 250 258 264 268 272 280 289 294 310 314 322 330 327 325 328 325 323 324 326
318 318 323 328 321 309 279 271 266 247 231 231 238 246 251 258 263 267 275 284 277 295 301 326 334 329 325 330 328 332 328 332
309 315 316 322 321 304 274 257 254 242 234 234 238 241 246 253 260 262 267 271 269 267 281 314 331 330 338 337 332 337 339 337
304 307 310 317 319 308 275 253 241 234 237 238 237 237 242 248 252 252 257 257 258 258 280 307 328 342 341 339 335 345 346 350
296 301 302 313 308 310 291 253 250 245 239 234 234 236 240 242 244 244 250 252 245 255 275 299 317 337 332 332 337 344 353 355
292 294 298 301 295 295 296 270 262 251 242 239 238 236 236 237 240 240 245 248 248 252 270 283 305 324 324 327 337 342 351 1
285 288 289 295 290 286 293 290 270 260 248 250 240 233 233 235 237 240 242 245 248 251 252 266 285 310 320 323 337 341 353 6
287 278 280 289 286 288 285 283 277 262 250 248 238 232 233 233 234 238 238 242 246 249 249 252 256 289 314 320 337 342 359 15
279 273 277 279 283 287 273 266 278 265 251 244 242 235 236 237 237 242 241 243 240 243 246 246 247 240 300 316 332 341 359 21
278 274 276 278 280 278 269 261 275 277 252 240 241 239 238 242 236 236 237 242 241 238 240 241 235 223 214 302 315 330 3 28
279 275 277 279 277 277 259 246 259 267 253 245 242 239 237 243 245 237 235 240 242 235 234 234 225 217 188 248 292 300 11 51
284 280 277 277 276 271 253 247 255 264 248 253 248 247 242 243 248 247 238 238 243 238 232 227 223 217 201 201 249 270 75 62
284 278 278 276 269 263 254 247 265 270 253 251 250 248 249 246 246 247 241 238 237 237 229 224 221 216 215 197 205 246 245 101
Wind_Speed_850mb
38 42 45 46 43 44 46 47 41 40 38 37 39 40 40 39 37 38 41 46 48 47 44 40 39 38 36 39 42 43 46 48
51 53 55 53 49 44 41 42 39 38 39 40 41 41 39 37 35 36 39 43 44 45 41 40 38 38 39 42 43 45 48 51
69 64 68 74 63 47 39 40 36 36 42 44 43 41 38 37 36 35 38 40 42 40 38 36 36 37 39 40 38 40 43 43
79 72 69 73 85 84 62 42 41 42 47 48 46 42 39 38 37 35 37 38 38 33 33 33 35 36 34 35 34 34 41 43
82 79 70 65 70 76 90 96 87 67 58 56 50 43 40 39 37 34 36 36 36 31 29 31 34 33 31 27 32 41 42 46
79 81 80 76 69 66 69 76 81 82 70 68 53 46 42 40 36 34 34 33 32 28 25 28 31 29 32 26 35 37 36 34
77 83 90 90 78 69 64 64 73 88 88 69 56 49 42 38 36 35 33 31 29 26 25 25 28 27 29 29 36 33 36 42
96 94 100 104 94 76 66 58 60 61 66 64 55 48 42 37 37 35 33 30 27 21 20 19 24 29 32 34 39 40 41 45
95 95 101 106 99 79 59 57 55 48 54 56 54 48 42 38 36 34 31 28 23 16 13 19 32 35 34 37 39 36 37 41
89 90 89 97 99 75 64 58 58 59 56 54 53 48 43 38 34 30 28 25 19 16 17 23 31 31 33 36 35 33 34 36
91 88 86 87 93 67 47 50 55 52 48 50 51 48 44 37 33 29 28 25 20 20 20 25 25 26 29 31 33 33 32 30
84 94 91 81 73 63 45 46 44 41 43 46 49 48 44 37 35 32 30 29 23 21 21 24 20 19 25 29 32 33 34 36
91 102 95 79 55 59 57 44 41 40 41 43 48 48 46 41 37 35 33 30 28 22 18 18 13 16 23 25 27 31 32 35
90 98 89 88 65 81 66 44 42 42 40 38 45 45 46 44 39 40 34 32 29 24 18 16 12 12 19 23 23 24 27 31
85 84 91 91 78 76 66 52 48 44 41 38 43 42 46 45 41 40 36 33 29 25 19 17 14 7 14 19 19 22 22 27
84 88 91 80 86 75 63 59 50 42 43 43 41 40 42 44 41 37 30 32 32 27 24 20 16 8 6 13 14 16 20 25
87 87 88 82 88 72 64 53 42 40 46 49 45 42 39 42 41 40 35 38 33 29 24 23 19 13 3 7 10 10 10 17
89 85 84 84 74 76 62 47 37 41 51 52 49 48 42 41 43 43 39 38 37 32 28 26 24 20 11 6 7 5 4 13
75 80 79 77 74 68 61 51 45 45 50 54 54 50 46 43 41 41 42 42 38 36 33 31 30 25 17 11 8 7 1 9
64 70 69 69 67 53 57 56 53 58 51 54 54 55 51 46 44 43 44 45 40 39 36 36 34 30 26 20 12 9 5 7
Wind_Direction_850mb
259 252 244 250 265 273 279 279 268 266 269 270 273 275 279 284 292 301 308 313 316 315 309 304 299 298 295 292 290 287 286 285
300 275 259 259 266 274 281 277 265 260 267 271 272 273 278 286 291 297 307 314 317 316 317 314 310 306 298 295 294 293 290 285
315 306 286 266 259 268 280 275 269 259 263 269 269 272 280 284 287 294 309 315 317 318 318 317 318 314 309 306 303 301 303 303
324 316 302 286 277 264 268 279 277 265 263 264 267 271 278 280 284 293 308 313 318 318 321 323 322 319 313 309 312 310 307 306
330 326 317 306 292 282 273 267 274 275 264 261 264 267 272 275 277 286 302 310 318 316 320 323 325 322 323 325 321 316 309 300
338 338 332 321 305 290 283 276 272 264 259 262 255 259 266 271 273 280 295 306 314 310 315 324 326 329 331 327 322 317 318 324
340 341 338 335 321 308 286 280 270 262 255 246 245 254 262 269 271 275 288 295 304 306 314 322 325 332 333 331 325 325 327 325
329 330 332 332 327 307 290 281 279 256 234 232 240 250 258 264 268 272 280 289 294 310 314 322 330 327 325 328 325 323 324 326
318 318 323 328 321 309 279 271 266 247 231 231 238 246 251 258 263 267 275 284 277 295 301 326 334 329 325 330 328 332 328 332
309 315 316 322 321 304 274 257 254 242 234 234 238 241 246 253 260 262 267 271 269 267 281 314 331 330 338 337 332 337 339 337
304 307 310 317 319 308 275 253 241 234 237 238 237 237 242 248 252 252 257 257 258 258 280 307 328 342 341 339 335 345 346 350
296 301 302 313 308 310 291 253 250 245 239 234 234 236 240 242 244 244 250 252 245 255 275 299 317 337 332 332 337 344 353 355
292 294 298 301 295 295 296 270 262 251 242 239 238 236 236 237 240 240 245 248 248 252 270 283 305 324 324 327 337 342 351 1
285 288 289 295 290 286 293 290 270 260 248 250 240 233 233 235 237 240 242 245 248 251 252 266 285 310 320 323 337 341 353 6
287 278 280 289 286 288 285 283 277 262 250 248 238 232 233 233 234 238 238 242 246 249 249 252 256 289 314 320 337 342 359 15
279 273 277 279 283 287 273 266 278 265 251 244 242 235 236 237 237 242 241 243 240 243 246 246 247 240 300 316 332 341 359 21
278 274 276 278 280 278 269 261 275 277 252 240 241 239 238 242 236 236 237 242 241 238 240 241 235 223 214 302 315 330 3 28
279 275 277 279 277 277 259 246 259 267 253 245 242 239 237 243 245 237 235 240 242 235 234 234 225 217 188 248 292 300 11 51
284 280 277 277 276 271 253 247 255 264 248 253 248 247 242 243 248 247 238 238 243 238 232 227 223 217 201 201 249 270 75 62
284 278 278 276 269 263 254 247 265 270 253 251 250 248 249 246 246 247 241 238 237 237 229 224 221 216 215 197 205 246 245 101